DateTimeUTC,F1_A11,F1_S11,BsB_S11,BsG_S11,BsR_S11,BbsB_S11,BbsG_S11,BbsR_S11,BaB_A11,BaG_A11,BaR_A11,Tu_S11,T_S11,Uu_S11,U_S11,P_S11,T1_A11
2021-08-11T09:00:00Z,00040200,20000000,,,,,,,-000.39,-000.05,0000.00,18.3,24.9,12.4,08.3,0676.7,31.0
2021-08-11T09:01:00Z,00040200,20000000,,,,,,,0000.16,0000.10,0000.00,18.3,24.9,12.4,08.3,0676.7,31.0
2021-08-11T09:02:00Z,00040200,20000000,,,,,,,-000.27,0000.05,0000.04,18.3,24.9,12.4,08.3,0676.6,31.0
2021-08-11T09:03:00Z,00040200,60000000,,,,,,,0000.36,0000.14,0000.12,18.3,24.9,12.4,08.3,0676.6,31.0
2021-08-11T09:04:00Z,00040200,40000000,0001.12,0000.05,0000.16,0000.29,-000.13,0000.20,0000.36,0000.37,-000.03,18.4,24.7,12.6,08.6,0677.5,31.0
2021-08-11T09:05:00Z,00040200,00000000,-000.34,0000.19,-000.15,-000.38,0000.15,0000.34,0000.10,-000.71,0000.01,18.5,24.7,12.7,08.7,0677.5,31.0
2021-08-11T09:06:00Z,00040200,00000000,0000.14,0000.07,0000.13,0000.62,0000.00,0000.29,-000.56,0000.43,0000.11,18.5,24.7,12.7,08.7,0677.5,31.0
2021-08-11T09:07:00Z,00040200,00000000,0000.17,0000.25,0000.20,-000.01,0000.20,0000.16,0000.28,-000.29,-000.01,18.5,24.7,12.6,08.7,0677.5,31.0
2021-08-11T09:08:00Z,00040200,00000000,0000.29,0000.63,0000.20,0000.26,0000.57,0000.27,-000.62,-000.22,-000.15,18.5,24.6,12.5,08.6,0677.5,31.0
2021-08-11T09:09:00Z,00040200,00000000,-000.37,0000.07,-000.04,0000.08,-000.08,0000.38,0000.01,0000.01,-000.27,18.5,24.7,12.5,08.5,0677.5,31.0
2021-08-11T09:10:00Z,00040200,00000000,0000.33,-000.04,-000.14,0000.21,0000.19,0000.05,-000.17,-000.24,-000.14,18.5,24.6,12.5,08.6,0677.4,31.0
2021-08-11T09:11:00Z,00040200,00000000,0000.17,0000.02,0000.19,0000.38,0000.08,-000.17,0000.05,0000.06,-000.06,18.5,24.6,12.4,08.5,0677.4,31.0
2021-08-11T09:12:00Z,00040200,00000000,0000.11,-000.14,0000.05,0000.18,0000.14,0000.04,0000.05,0000.05,-000.17,18.5,24.6,12.4,08.5,0677.4,31.0
2021-08-11T09:13:00Z,00040200,00000000,-000.35,0000.00,-000.23,0000.49,0000.00,-000.11,-000.08,-000.46,-000.33,18.5,24.6,12.3,08.4,0677.4,31.0
2021-08-11T09:14:00Z,00040200,00000000,-000.01,-000.36,-000.14,0000.51,-000.02,-000.08,-000.36,0000.00,0000.28,18.5,24.6,12.2,08.4,0677.5,31.0
2021-08-11T09:15:00Z,00040200,00000000,0000.06,-000.25,0000.02,-000.04,-000.03,0000.47,0000.19,0000.06,-000.15,18.5,24.6,12.2,08.4,0677.5,31.0
2021-08-11T09:16:00Z,00040200,00000000,0000.13,0000.05,-000.11,0000.52,-000.00,0000.06,-000.35,-000.25,-000.30,18.5,24.6,12.2,08.3,0677.5,31.0
2021-08-11T09:17:00Z,00040200,00000000,0000.93,-000.42,0000.19,0000.46,0000.17,0000.13,-000.26,-000.65,-000.11,18.5,24.6,12.2,08.4,0677.5,31.0
2021-08-11T09:18:00Z,00040200,00000000,0000.27,-000.15,-000.08,0000.35,0000.21,0000.35,-000.17,0000.39,0000.09,18.5,24.6,12.1,08.3,0677.5,31.0
2021-08-11T09:19:00Z,00040200,00000000,0000.10,-000.01,-000.27,0000.21,0000.19,0000.08,0000.13,-000.10,0000.16,18.5,24.6,12.0,08.3,0677.5,31.0
2021-08-11T09:20:00Z,00040200,00000000,0000.42,-000.28,0000.33,0000.12,-000.29,0000.32,0000.41,-000.03,-000.32,18.5,24.7,12.0,08.3,0677.5,31.0
2021-08-11T09:21:00Z,00040200,00000000,0000.05,0000.01,0000.10,0000.18,-000.14,0000.08,-000.23,-000.26,0000.02,18.5,24.6,11.9,08.2,0677.5,31.0
2021-08-11T09:22:00Z,00040200,00000000,-000.22,0000.12,-000.02,-000.20,0000.14,0000.06,-000.47,-000.18,-000.49,18.5,24.6,11.8,08.1,0677.5,31.0
2021-08-11T09:23:00Z,00040200,00000000,-000.20,0000.08,-000.23,0000.26,-000.09,0000.05,-000.42,-000.11,0000.15,18.6,24.7,11.8,08.1,0677.5,31.0
2021-08-11T09:24:00Z,00040200,00000000,0000.77,0000.28,0000.05,0000.06,0000.21,-000.26,0000.32,0000.07,0000.15,18.6,24.7,11.8,08.1,0677.5,31.0
2021-08-11T09:25:00Z,00040200,00000000,0000.91,-000.06,-000.02,0000.52,0000.13,0000.16,0000.55,0000.65,0000.08,18.6,24.7,11.9,08.2,0677.5,31.0
2021-08-11T09:26:00Z,00040200,00000000,-000.16,0000.11,0000.02,0000.14,0000.08,0000.28,-000.22,-000.18,0000.40,18.7,24.7,12.0,08.3,0677.5,31.0
2021-08-11T09:27:00Z,00040200,00000000,0000.16,-000.16,-000.15,0000.74,0000.33,0000.26,0000.22,0000.25,0000.11,18.7,24.7,12.1,08.3,0677.5,31.0
2021-08-11T09:28:00Z,00040200,00000000,0000.88,0000.03,0000.13,-000.15,-000.00,0000.25,-000.18,0000.16,0000.08,18.7,24.8,12.1,08.4,0677.5,31.0
2021-08-11T09:29:00Z,00040200,00000000,0000.28,-000.02,0000.10,-000.05,-000.27,0000.07,0000.03,-000.10,-000.14,18.7,24.7,12.2,08.4,0677.5,31.0
2021-08-11T09:30:00Z,00040200,00000000,0000.36,-000.05,-000.21,0000.00,0000.22,0000.20,0000.20,-000.33,-000.12,18.7,24.7,12.1,08.3,0677.5,31.0
2021-08-11T09:31:00Z,00040200,00000000,-000.01,0000.42,-000.18,0000.05,0000.22,0000.22,-000.36,-000.23,-000.17,18.7,24.7,12.0,08.3,0677.5,31.0
2021-08-11T09:32:00Z,00040200,00000000,-000.06,-000.34,-000.13,0000.05,0000.22,0000.03,0000.21,0000.04,0000.19,18.7,24.7,11.9,08.2,0677.5,31.0
2021-08-11T09:33:00Z,00040200,00000000,0000.01,-000.25,0000.31,-000.27,0000.14,-000.12,-000.27,-000.20,-000.30,18.7,24.8,11.9,08.2,0677.5,31.0
2021-08-11T09:34:00Z,00040200,00000000,0000.07,0000.13,-000.02,-000.47,-000.06,0000.26,0000.00,-000.18,0000.32,18.7,24.8,11.9,08.2,0677.4,31.0
2021-08-11T09:35:00Z,00040200,00000000,-000.27,-000.09,0000.38,0000.43,0000.14,0000.36,-000.32,0000.22,-000.51,18.7,24.8,11.9,08.2,0677.5,31.0
2021-08-11T09:36:00Z,00040200,00000000,0000.11,0000.18,-000.13,-000.13,-000.03,0000.31,0000.13,-000.18,0000.33,18.7,24.7,11.7,08.1,0677.5,31.0
2021-08-11T09:37:00Z,00040200,00000000,0000.22,0000.11,0000.07,-000.33,0000.01,0000.04,-000.47,-000.17,-000.43,18.7,24.7,11.7,08.1,0677.5,31.0
2021-08-11T09:38:00Z,00040200,00000000,0000.35,0000.24,0000.07,-000.39,0000.23,0000.51,-000.10,-000.26,0000.01,18.7,24.7,11.6,08.0,0677.5,31.0
2021-08-11T09:39:00Z,00040200,00000000,0000.37,0000.07,0000.04,0000.16,0000.19,0000.13,0000.00,0000.07,-000.15,18.7,24.7,11.6,08.0,0677.5,31.0
2021-08-11T09:40:00Z,00040200,00000000,0000.65,-000.28,-000.07,0000.38,-000.12,0000.14,0000.32,0000.08,-000.29,18.7,24.7,11.6,08.0,0677.5,31.0
2021-08-11T09:41:00Z,00040200,00000000,0000.16,0000.10,0000.12,0000.71,0000.10,0000.09,-000.41,-000.33,-000.00,18.7,24.8,11.6,08.0,0677.5,31.0
2021-08-11T09:42:00Z,00040200,00000000,0000.40,0000.34,0000.08,0000.03,0000.29,0000.11,-000.22,0000.30,0000.08,18.7,24.7,11.5,07.9,0677.5,31.0
2021-08-11T09:43:00Z,00040200,00000000,0000.30,0000.13,0000.06,0000.12,0000.12,0000.13,-000.31,-000.23,-000.08,18.7,24.7,11.4,07.9,0677.5,31.0
2021-08-11T09:44:00Z,00040200,00000000,-000.41,-000.19,0000.07,-000.23,0000.25,0000.29,0000.40,-000.23,-000.24,18.7,24.8,11.5,07.9,0677.5,31.0
2021-08-11T09:45:00Z,00040200,00000000,0000.33,-000.18,-000.05,0000.34,0000.22,0000.17,-000.07,0000.11,0000.19,18.7,24.8,11.4,07.8,0677.5,31.0
2021-08-11T09:46:00Z,00040200,00000000,0000.21,0000.02,0000.12,-000.14,0000.09,0000.03,0000.03,-000.10,-000.02,18.7,24.8,11.4,07.9,0677.5,31.0
2021-08-11T09:47:00Z,00040200,00000000,0000.41,-000.02,-000.15,0000.40,-000.06,-000.20,0000.09,-000.17,-000.11,18.7,24.7,11.4,07.9,0677.5,31.0
2021-08-11T09:48:00Z,00040200,00000000,-000.73,0000.18,0000.05,0000.26,0000.04,0000.11,-000.35,-000.09,-000.18,18.7,24.8,11.4,07.8,0677.5,31.0
2021-08-11T09:49:00Z,00040200,00000000,0000.49,0000.06,-000.25,0000.20,0000.24,-000.14,-000.44,-000.27,-000.04,18.7,24.8,11.3,07.8,0677.5,31.0
2021-08-11T09:50:00Z,00040200,00000000,0000.63,-000.04,0000.13,0000.00,0000.21,0000.25,-000.04,-000.17,-000.36,18.7,24.7,11.2,07.7,0677.5,31.0
2021-08-11T09:51:00Z,00040200,00000000,-000.24,0000.07,-000.15,0000.14,-000.03,-000.08,0000.04,0000.28,-000.05,18.7,24.7,11.2,07.8,0677.6,31.0
2021-08-11T09:52:00Z,00040200,00000000,0000.03,0000.47,-000.05,0000.20,0000.15,-000.06,-000.32,-000.31,-000.10,18.7,24.8,11.2,07.7,0677.6,31.0
2021-08-11T09:53:00Z,00040200,00000000,-000.15,0000.29,-000.15,0000.23,0000.09,0000.18,0000.26,-000.17,-000.24,18.7,24.8,11.0,07.6,0677.6,31.0
2021-08-11T09:54:00Z,00040200,00000000,-000.27,0000.04,0000.23,0000.29,-000.12,0000.35,-000.78,-000.01,0000.18,18.7,24.8,11.0,07.6,0677.6,31.0
2021-08-11T09:55:00Z,00040200,00000000,0000.72,-000.05,0000.11,-000.14,0000.10,0000.17,0000.26,-000.58,-000.43,18.7,24.7,11.0,07.6,0677.6,31.0
2021-08-11T09:56:00Z,00040200,00000000,-000.18,0000.23,0000.10,0000.70,0000.16,0000.49,0000.15,0000.29,0000.33,18.7,24.8,11.0,07.6,0677.6,31.0
2021-08-11T09:57:00Z,00040200,40000000,,,,,,,0000.01,0000.57,0000.39,18.7,24.8,11.0,07.6,0677.8,31.0
2021-08-11T09:58:00Z,00040200,60000000,,,,,,,-000.09,-000.14,-000.66,18.5,24.9,11.4,07.7,0676.6,31.0
2021-08-11T09:59:00Z,00040200,20000000,,,,,,,0000.20,0000.15,0000.54,18.5,25.0,11.3,07.6,0676.6,31.0
